EWG155 EDDS-LIPZ

Flight info

Callsign EWG155
Flight time 0h 49m
Altitude 31000
Route ROTWE5B ROTWE Y126 TUBLO N850 NATOR DCT TRA DCT ARGAX DCT RESIA DCT ATPED/N0399F190 P131 ADOSA L612 ALBET ALBET2E
Aircraft A320/M-SDE3FGHIRWY/LB1

Departure

Time 2026-05-05 19:36
Airport Stuttgart Airport (EDDS)

Arrival

Time 2026-05-05 20:26
Airport Venice Marco Polo Airport (LIPZ)
Time Latitude Longitude Altitude Speed Heading
2026-05-05 19:03 48.68780 9.19620 1306 ft 0 kts 164°
2026-05-05 19:28 48.68768 9.19626 1304 ft 4 kts 164°
2026-05-05 19:28 48.68736 9.19652 1302 ft 6 kts 131°
2026-05-05 19:28 48.68734 9.19730 1300 ft 9 kts 76°
2026-05-05 19:28 48.68753 9.19824 1297 ft 10 kts 73°
2026-05-05 19:29 48.68795 9.19945 1295 ft 19 kts 52°
2026-05-05 19:29 48.68856 9.20129 1292 ft 21 kts 76°
2026-05-05 19:29 48.68900 9.20366 1287 ft 25 kts 74°
2026-05-05 19:29 48.68953 9.20644 1279 ft 29 kts 73°
2026-05-05 19:30 48.69012 9.20951 1272 ft 32 kts 74°
2026-05-05 19:30 48.69069 9.21253 1267 ft 28 kts 74°
2026-05-05 19:30 48.69126 9.21542 1265 ft 30 kts 73°
2026-05-05 19:30 48.69180 9.21834 1256 ft 26 kts 76°
2026-05-05 19:31 48.69233 9.22116 1245 ft 30 kts 73°
2026-05-05 19:31 48.69286 9.22395 1243 ft 24 kts 75°
2026-05-05 19:31 48.69335 9.22660 1232 ft 28 kts 73°
2026-05-05 19:31 48.69388 9.22929 1227 ft 26 kts 73°
2026-05-05 19:32 48.69436 9.23196 1221 ft 27 kts 75°
2026-05-05 19:32 48.69488 9.23473 1216 ft 27 kts 74°
2026-05-05 19:32 48.69533 9.23709 1211 ft 20 kts 75°
2026-05-05 19:32 48.69569 9.23910 1207 ft 21 kts 71°
2026-05-05 19:33 48.69608 9.24097 1202 ft 12 kts 75°
2026-05-05 19:33 48.69584 9.24229 1197 ft 15 kts 121°
2026-05-05 19:33 48.69525 9.24305 1192 ft 0 kts 163°
2026-05-05 19:34 48.69524 9.24305 1192 ft 0 kts 163°
2026-05-05 19:35 48.69511 9.24311 1191 ft 8 kts 163°
2026-05-05 19:35 48.69438 9.24324 1190 ft 11 kts 192°
2026-05-05 19:35 48.69379 9.24258 1192 ft 10 kts 238°
2026-05-05 19:35 48.69358 9.24149 1194 ft 15 kts 255°
2026-05-05 19:36 48.69262 9.23654 1204 ft 84 kts 253°
2026-05-05 19:36 48.69045 9.22506 1227 ft 140 kts 254°
2026-05-05 19:36 48.68740 9.20915 1479 ft 163 kts 253°
2026-05-05 19:36 48.68431 9.19262 2168 ft 163 kts 254°
2026-05-05 19:37 48.68134 9.17602 2790 ft 169 kts 253°
2026-05-05 19:37 48.67800 9.15773 3070 ft 191 kts 253°
2026-05-05 19:37 48.67418 9.13725 3297 ft 216 kts 253°
2026-05-05 19:37 48.66982 9.11414 3692 ft 239 kts 253°
2026-05-05 19:38 48.66504 9.08910 4510 ft 245 kts 253°
2026-05-05 19:38 48.66035 9.06463 5420 ft 246 kts 253°
2026-05-05 19:38 48.65554 9.03966 6321 ft 249 kts 253°
2026-05-05 19:38 48.65063 9.01438 7140 ft 252 kts 252°
2026-05-05 19:39 48.64563 8.98873 7962 ft 256 kts 252°
2026-05-05 19:39 48.64056 8.96274 8774 ft 260 kts 252°
2026-05-05 19:39 48.63540 8.93632 9600 ft 263 kts 252°
2026-05-05 19:39 48.63014 8.90946 10208 ft 275 kts 252°
2026-05-05 19:40 48.62444 8.88070 10438 ft 298 kts 250°
2026-05-05 19:40 48.61593 8.85079 10614 ft 320 kts 240°
2026-05-05 19:40 48.60318 8.82271 10877 ft 338 kts 230°
2026-05-05 19:40 48.58681 8.79580 11487 ft 344 kts 228°
2026-05-05 19:41 48.57051 8.76911 12156 ft 348 kts 228°
2026-05-05 19:41 48.55406 8.74204 12823 ft 352 kts 228°
2026-05-05 19:41 48.53741 8.71453 13491 ft 356 kts 228°
2026-05-05 19:41 48.52190 8.68553 14071 ft 360 kts 237°
2026-05-05 19:42 48.51007 8.65165 14634 ft 365 kts 248°
2026-05-05 19:42 48.50260 8.61546 15191 ft 370 kts 253°
2026-05-05 19:42 48.49580 8.57796 15754 ft 374 kts 253°
2026-05-05 19:42 48.48882 8.53995 16327 ft 378 kts 253°
2026-05-05 19:43 48.48020 8.50240 16875 ft 381 kts 244°
2026-05-05 19:43 48.46674 8.46776 17419 ft 384 kts 232°
2026-05-05 19:43 48.44876 8.43780 17968 ft 388 kts 221°
2026-05-05 19:43 48.42689 8.41383 18475 ft 391 kts 210°
2026-05-05 19:44 48.40207 8.39666 18970 ft 394 kts 199°
2026-05-05 19:44 48.37584 8.38612 19510 ft 395 kts 192°
2026-05-05 19:44 48.34920 8.37790 20705 ft 376 kts 192°
2026-05-05 19:44 48.32459 8.37020 22022 ft 357 kts 191°
2026-05-05 19:45 48.30081 8.36267 23273 ft 342 kts 191°
2026-05-05 19:45 48.27770 8.35531 23940 ft 339 kts 191°
2026-05-05 19:45 48.25459 8.34796 24441 ft 339 kts 191°
2026-05-05 19:45 48.23154 8.34066 24891 ft 341 kts 191°
2026-05-05 19:46 48.20806 8.33325 25185 ft 349 kts 191°
2026-05-05 19:46 48.18370 8.32719 25312 ft 361 kts 185°
2026-05-05 19:46 48.15824 8.32617 25441 ft 372 kts 178°
2026-05-05 19:46 48.13217 8.33049 25576 ft 383 kts 172°
2026-05-05 19:47 48.10535 8.33705 25706 ft 393 kts 172°
2026-05-05 19:47 48.07806 8.34365 25843 ft 402 kts 172°
2026-05-05 19:47 48.05017 8.35038 25962 ft 410 kts 173°
2026-05-05 19:47 48.02226 8.35706 26104 ft 417 kts 173°
2026-05-05 19:48 47.99342 8.36395 26221 ft 424 kts 173°
2026-05-05 19:48 47.96413 8.37097 26352 ft 429 kts 173°
2026-05-05 19:48 47.93451 8.37809 26538 ft 433 kts 173°
2026-05-05 19:48 47.90460 8.38529 26787 ft 435 kts 173°
2026-05-05 19:49 47.87464 8.39255 27048 ft 436 kts 173°
2026-05-05 19:49 47.85547 8.39718 27212 ft 437 kts 173°
2026-05-05 19:49 47.81523 8.40689 27536 ft 439 kts 173°
2026-05-05 19:49 47.78510 8.41412 27836 ft 439 kts 173°
2026-05-05 19:50 47.75502 8.42133 28186 ft 438 kts 173°
2026-05-05 19:50 47.72510 8.42995 28511 ft 439 kts 167°
2026-05-05 19:50 47.69621 8.44538 28822 ft 443 kts 158°
2026-05-05 19:50 47.66938 8.46801 29147 ft 447 kts 148°
2026-05-05 19:51 47.64522 8.49736 29487 ft 451 kts 141°
2026-05-05 19:51 47.62226 8.52903 29827 ft 450 kts 141°
2026-05-05 19:51 47.59933 8.56040 30141 ft 449 kts 141°
2026-05-05 19:51 47.57660 8.59134 30427 ft 448 kts 141°
2026-05-05 19:52 47.55362 8.62253 30701 ft 448 kts 141°
2026-05-05 19:52 47.53062 8.65375 30881 ft 449 kts 141°
2026-05-05 19:52 47.50741 8.68521 30919 ft 451 kts 141°
2026-05-05 19:53 47.46120 8.74779 30885 ft 452 kts 142°
2026-05-05 19:53 47.41452 8.81083 30899 ft 455 kts 142°
2026-05-05 19:54 47.36783 8.87376 30896 ft 456 kts 142°
2026-05-05 19:54 47.32081 8.93695 30898 ft 456 kts 142°
2026-05-05 19:55 47.27406 8.99956 30903 ft 456 kts 142°
2026-05-05 19:55 47.22736 9.06214 30909 ft 456 kts 143°
2026-05-05 19:56 47.18031 9.12503 30877 ft 455 kts 144°
2026-05-05 19:56 47.13342 9.18741 30879 ft 454 kts 144°
2026-05-05 19:57 47.08654 9.24955 30882 ft 453 kts 144°
2026-05-05 19:57 47.03977 9.31147 30889 ft 453 kts 144°
2026-05-05 19:58 46.99290 9.37338 30893 ft 454 kts 144°
2026-05-05 19:58 46.94599 9.43517 30890 ft 454 kts 144°
2026-05-05 19:59 46.89898 9.49706 30897 ft 455 kts 145°
2026-05-05 19:59 46.85174 9.55898 30904 ft 456 kts 145°
2026-05-05 20:00 46.80475 9.62049 30924 ft 456 kts 145°
2026-05-05 20:00 46.75740 9.68235 30920 ft 455 kts 145°
2026-05-05 20:01 46.71022 9.74368 30955 ft 456 kts 145°
2026-05-05 20:01 46.66299 9.80493 30953 ft 456 kts 145°
2026-05-05 20:02 46.61556 9.86639 30975 ft 456 kts 145°
2026-05-05 20:02 46.56815 9.92781 30979 ft 455 kts 145°
2026-05-05 20:03 46.52106 9.98848 30968 ft 455 kts 145°
2026-05-05 20:03 46.47356 10.04933 30971 ft 456 kts 146°
2026-05-05 20:04 46.42509 10.10872 30965 ft 456 kts 148°
2026-05-05 20:04 46.37572 10.16694 30975 ft 459 kts 148°
2026-05-05 20:05 46.32625 10.22546 30983 ft 460 kts 148°
2026-05-05 20:05 46.27688 10.28427 30986 ft 460 kts 147°
2026-05-05 20:06 46.22763 10.34306 30992 ft 459 kts 147°
2026-05-05 20:06 46.17822 10.40173 30993 ft 459 kts 148°
2026-05-05 20:07 46.12866 10.46019 30966 ft 461 kts 148°
2026-05-05 20:07 46.07897 10.51895 30980 ft 462 kts 148°
2026-05-05 20:08 46.02933 10.57763 30862 ft 463 kts 148°
2026-05-05 20:08 46.01284 10.59712 30698 ft 464 kts 148°
2026-05-05 20:08 45.97971 10.63614 30376 ft 464 kts 148°
2026-05-05 20:08 45.95463 10.66550 30140 ft 465 kts 148°
2026-05-05 20:09 45.93772 10.68524 29953 ft 465 kts 148°
2026-05-05 20:09 45.90447 10.72402 29489 ft 465 kts 148°
2026-05-05 20:09 45.87932 10.75336 28284 ft 469 kts 147°
2026-05-05 20:09 45.86207 10.77343 27443 ft 471 kts 147°
2026-05-05 20:10 45.83664 10.80302 26257 ft 472 kts 147°
2026-05-05 20:10 45.81096 10.83289 25032 ft 473 kts 147°
2026-05-05 20:10 45.78556 10.86244 23884 ft 473 kts 146°
2026-05-05 20:10 45.76007 10.89215 22883 ft 468 kts 146°
2026-05-05 20:11 45.73505 10.92136 22095 ft 459 kts 146°
2026-05-05 20:11 45.71080 10.94963 21324 ft 453 kts 146°
2026-05-05 20:11 45.68647 10.97793 20549 ft 446 kts 146°
2026-05-05 20:11 45.66244 11.00637 19795 ft 444 kts 142°
2026-05-05 20:12 45.64126 11.03784 19067 ft 445 kts 134°
2026-05-05 20:12 45.62315 11.07363 18336 ft 446 kts 127°
2026-05-05 20:12 45.60650 11.11095 17561 ft 443 kts 127°
2026-05-05 20:12 45.59003 11.14773 16862 ft 438 kts 127°
2026-05-05 20:13 45.57365 11.18420 16192 ft 433 kts 126°
2026-05-05 20:13 45.55738 11.22035 15523 ft 428 kts 126°
2026-05-05 20:13 45.54128 11.25600 14873 ft 425 kts 126°
2026-05-05 20:13 45.52540 11.29120 14259 ft 421 kts 126°
2026-05-05 20:14 45.50969 11.32602 13852 ft 412 kts 126°
2026-05-05 20:14 45.49459 11.35957 13734 ft 395 kts 126°
2026-05-05 20:14 45.47996 11.39195 13578 ft 380 kts 126°
2026-05-05 20:14 45.46592 11.42298 13456 ft 366 kts 126°
2026-05-05 20:15 45.45237 11.45287 13327 ft 353 kts 126°
2026-05-05 20:15 45.43927 11.48170 13128 ft 343 kts 126°
2026-05-05 20:15 45.42630 11.50922 12925 ft 335 kts 131°
2026-05-05 20:15 45.41111 11.53438 12408 ft 337 kts 136°
2026-05-05 20:16 45.39553 11.55905 12041 ft 332 kts 136°
2026-05-05 20:16 45.38013 11.58330 11605 ft 330 kts 136°
2026-05-05 20:16 45.36496 11.60758 11199 ft 329 kts 131°
2026-05-05 20:16 45.35302 11.63548 10872 ft 328 kts 116°
2026-05-05 20:17 45.34644 11.66560 10608 ft 315 kts 102°
2026-05-05 20:17 45.34494 11.69628 10035 ft 312 kts 89°
2026-05-05 20:17 45.34643 11.72695 9367 ft 309 kts 88°
2026-05-05 20:17 45.34786 11.75728 8774 ft 303 kts 88°
2026-05-05 20:18 45.34923 11.78699 8228 ft 303 kts 88°
2026-05-05 20:18 45.35059 11.81690 7800 ft 302 kts 88°
2026-05-05 20:18 45.35101 11.84665 7421 ft 298 kts 97°
2026-05-05 20:18 45.34888 11.87583 7008 ft 297 kts 98°
2026-05-05 20:19 45.34670 11.90502 6550 ft 294 kts 97°
2026-05-05 20:19 45.34457 11.93378 5867 ft 291 kts 97°
2026-05-05 20:19 45.34248 11.96227 5207 ft 288 kts 97°
2026-05-05 20:19 45.34048 11.98992 4890 ft 271 kts 97°
2026-05-05 20:20 45.33859 12.01578 4738 ft 256 kts 97°
2026-05-05 20:20 45.33677 12.04034 4631 ft 244 kts 97°
2026-05-05 20:20 45.33501 12.06401 4522 ft 239 kts 97°
2026-05-05 20:20 45.33329 12.08742 4414 ft 238 kts 97°
2026-05-05 20:21 45.33271 12.11087 4308 ft 238 kts 82°
2026-05-05 20:21 45.33768 12.13308 4118 ft 236 kts 59°
2026-05-05 20:21 45.34798 12.15082 3844 ft 233 kts 41°
2026-05-05 20:21 45.36012 12.16622 3547 ft 232 kts 41°
2026-05-05 20:22 45.37209 12.18144 3236 ft 231 kts 42°
2026-05-05 20:22 45.38400 12.19664 2936 ft 229 kts 42°
2026-05-05 20:22 45.39582 12.21175 2622 ft 227 kts 43°
2026-05-05 20:22 45.40736 12.22650 2332 ft 218 kts 44°
2026-05-05 20:23 45.41840 12.24061 2037 ft 209 kts 43°
2026-05-05 20:23 45.42898 12.25415 1800 ft 197 kts 44°
2026-05-05 20:23 45.43885 12.26679 1505 ft 184 kts 44°
2026-05-05 20:23 45.44801 12.27851 1277 ft 167 kts 45°
2026-05-05 20:24 45.45622 12.28903 1059 ft 152 kts 44°
2026-05-05 20:24 45.46374 12.29856 833 ft 143 kts 41°
2026-05-05 20:24 45.47101 12.30785 645 ft 138 kts 41°
2026-05-05 20:24 45.47804 12.31697 431 ft 136 kts 41°
2026-05-05 20:25 45.48495 12.32596 255 ft 134 kts 41°
2026-05-05 20:25 45.49183 12.33484 108 ft 133 kts 41°
2026-05-05 20:25 45.49855 12.34346 16 ft 122 kts 41°
2026-05-05 20:25 45.50378 12.35025 13 ft 77 kts 41°
2026-05-05 20:26 45.50639 12.35340 15 ft 24 kts 35°
2026-05-05 20:26 45.50784 12.35423 16 ft 23 kts 19°
2026-05-05 20:26 45.50906 12.35458 16 ft 12 kts 349°
2026-05-05 20:26 45.50970 12.35376 18 ft 12 kts 296°
2026-05-05 20:27 45.50968 12.35258 16 ft 12 kts 257°
2026-05-05 20:27 45.50923 12.35163 16 ft 11 kts 223°
2026-05-05 20:27 45.50870 12.35093 16 ft 10 kts 223°
2026-05-05 20:27 45.50820 12.35028 16 ft 9 kts 223°
2026-05-05 20:28 45.50773 12.34967 16 ft 9 kts 222°
2026-05-05 20:28 45.50732 12.34913 16 ft 8 kts 222°